Time,TemperatureF,DewpointF,PressureIn,WindDirection,WindDirectionDegrees,WindSpeedMPH,WindSpeedGustMPH,Humidity,HourlyPrecipIn,Conditions,Clouds,dailyrainin,SoftwareType,DateUTC
2013-06-21 00:00:00,63.7,56.8,30.27,ENE,66,0.0,0.0,78,0.00,,---,0.00,VWS V14.01,2013-06-21 04:00:00,
2013-06-21 00:01:00,63.7,56.8,30.27,ENE,66,0.0,0.0,78,0.00,,---,0.00,VWS V14.01,2013-06-21 04:01:00,
2013-06-21 00:06:00,63.7,56.8,30.27,ESE,109,0.0,0.0,78,0.00,,---,0.00,VWS V14.01,2013-06-21 04:06:00,
2013-06-21 00:11:00,63.7,56.8,30.27,ESE,109,0.0,0.0,78,0.00,,---,0.00,VWS V14.01,2013-06-21 04:11:00,
2013-06-21 00:16:00,63.6,56.6,30.27,ESE,109,0.0,0.0,78,0.00,,---,0.00,VWS V14.01,2013-06-21 04:16:00,
2013-06-21 00:21:00,63.2,56.6,30.27,ESE,109,0.0,0.0,79,0.00,,---,0.00,VWS V14.01,2013-06-21 04:21:00,
2013-06-21 00:26:00,62.7,56.1,30.27,ESE,109,0.0,0.0,79,0.00,,---,0.00,VWS V14.01,2013-06-21 04:26:00,
2013-06-21 00:31:00,62.5,56.6,30.27,East,82,0.0,0.0,81,0.00,,---,0.00,VWS V14.01,2013-06-21 04:31:00,
2013-06-21 00:36:00,62.5,56.9,30.27,ENE,77,0.0,0.0,82,0.00,,---,0.00,VWS V14.01,2013-06-21 04:36:00,
2013-06-21 00:41:00,62.3,57.1,30.27,ENE,77,0.0,0.0,83,0.00,,---,0.00,VWS V14.01,2013-06-21 04:41:00,
2013-06-21 00:46:00,61.9,57.4,30.27,SW,215,0.0,2.7,85,0.00,,---,0.00,VWS V14.01,2013-06-21 04:46:00,
2013-06-21 00:51:00,61.8,57.5,30.27,SSW,194,0.0,0.0,86,0.00,,---,0.00,VWS V14.01,2013-06-21 04:51:00,
2013-06-21 00:56:00,61.8,57.5,30.27,SSW,194,0.0,0.0,86,0.00,,---,0.00,VWS V14.01,2013-06-21 04:56:00,
2013-06-21 01:01:00,61.6,57.7,30.27,SSW,194,0.0,0.0,87,0.00,,---,0.00,VWS V14.01,2013-06-21 05:01:00,
2013-06-21 01:06:00,61.6,57.7,30.27,SSW,194,0.0,0.0,87,0.00,,---,0.00,VWS V14.01,2013-06-21 05:06:00,
2013-06-21 01:11:00,61.6,57.7,30.27,SSW,194,0.0,0.0,87,0.00,,---,0.00,VWS V14.01,2013-06-21 05:11:00,
2013-06-21 01:16:00,61.4,57.2,30.27,SSW,194,0.0,0.0,86,0.00,,---,0.00,VWS V14.01,2013-06-21 05:16:00,
2013-06-21 01:21:00,61.2,57.0,30.27,SSW,194,0.0,0.0,86,0.00,,---,0.00,VWS V14.01,2013-06-21 05:21:00,
2013-06-21 01:26:00,61.0,56.8,30.27,SSW,194,0.0,0.0,86,0.00,,---,0.00,VWS V14.01,2013-06-21 05:26:00,
2013-06-21 01:31:00,60.9,57.0,30.27,SSW,194,0.0,0.0,87,0.00,,---,0.00,VWS V14.01,2013-06-21 05:31:00,
2013-06-21 01:36:00,60.7,56.8,30.27,SSW,194,0.0,0.0,87,0.00,,---,0.00,VWS V14.01,2013-06-21 05:36:00,
2013-06-21 01:41:00,60.5,56.9,30.27,SSW,194,0.0,0.0,88,0.00,,---,0.00,VWS V14.01,2013-06-21 05:41:00,
2013-06-21 01:46:00,60.3,57.1,30.27,SSW,194,0.0,0.0,89,0.00,,---,0.00,VWS V14.01,2013-06-21 05:46:00,
2013-06-21 01:51:00,60.1,56.9,30.27,SSW,194,0.0,0.0,89,0.00,,---,0.00,VWS V14.01,2013-06-21 05:51:00,
2013-06-21 01:56:00,60.0,57.0,30.27,SW,231,0.0,0.0,90,0.00,,---,0.00,VWS V14.01,2013-06-21 05:56:00,
2013-06-21 02:01:00,59.8,57.2,30.27,SW,232,0.0,0.0,91,0.00,,---,0.00,VWS V14.01,2013-06-21 06:01:00,
2013-06-21 02:06:00,59.8,57.2,30.27,SW,234,0.0,0.0,91,0.00,,---,0.00,VWS V14.01,2013-06-21 06:06:00,
2013-06-21 02:11:00,59.6,57.3,30.27,WNW,291,0.0,0.0,92,0.00,,---,0.00,VWS V14.01,2013-06-21 06:11:00,
2013-06-21 02:16:00,59.4,57.4,30.27,NW,313,0.0,0.0,93,0.00,,---,0.00,VWS V14.01,2013-06-21 06:16:00,
2013-06-21 02:21:00,59.2,57.5,30.27,NW,307,0.0,0.0,94,0.00,,---,0.00,VWS V14.01,2013-06-21 06:21:00,
2013-06-21 02:26:00,59.1,57.3,30.27,NW,310,0.0,0.0,94,0.00,,---,0.00,VWS V14.01,2013-06-21 06:26:00,
2013-06-21 02:31:00,59.1,57.6,30.27,NW,310,0.0,0.0,95,0.00,,---,0.00,VWS V14.01,2013-06-21 06:31:00,
2013-06-21 02:36:00,58.9,57.5,30.27,NW,310,0.0,0.0,95,0.00,,---,0.00,VWS V14.01,2013-06-21 06:36:00,
2013-06-21 02:41:00,58.7,57.3,30.27,WSW,257,0.0,0.0,95,0.00,,---,0.00,VWS V14.01,2013-06-21 06:41:00,
2013-06-21 02:46:00,58.3,57.5,30.27,WNW,287,0.0,0.0,97,0.00,,---,0.00,VWS V14.01,2013-06-21 06:46:00,
2013-06-21 02:51:00,58.3,57.8,30.27,West,279,0.0,0.0,98,0.00,,---,0.00,VWS V14.01,2013-06-21 06:51:00,
2013-06-21 02:56:00,58.3,57.8,30.27,West,281,0.0,0.0,98,0.00,,---,0.00,VWS V14.01,2013-06-21 06:56:00,
2013-06-21 03:01:00,58.3,57.8,30.27,NW,308,0.0,0.0,98,0.00,,---,0.00,VWS V14.01,2013-06-21 07:01:00,
2013-06-21 03:06:00,58.0,57.4,30.27,West,264,0.0,0.0,98,0.00,,---,0.00,VWS V14.01,2013-06-21 07:06:00,
2013-06-21 03:11:00,58.0,57.4,30.27,West,264,0.0,0.0,98,0.00,,---,0.00,VWS V14.01,2013-06-21 07:11:00,
2013-06-21 03:16:00,57.8,57.2,30.27,West,264,0.0,0.0,98,0.00,,---,0.00,VWS V14.01,2013-06-21 07:16:00,
2013-06-21 03:21:00,57.8,57.5,30.27,West,264,0.0,0.0,99,0.00,,---,0.00,VWS V14.01,2013-06-21 07:21:00,
2013-06-21 03:26:00,57.6,57.3,30.27,West,264,0.0,0.0,99,0.00,,---,0.00,VWS V14.01,2013-06-21 07:26:00,
2013-06-21 03:31:00,57.4,57.2,30.27,West,264,0.0,0.0,99,0.00,,---,0.00,VWS V14.01,2013-06-21 07:31:00,
2013-06-21 03:36:00,57.3,57.0,30.27,West,264,0.0,0.0,99,0.00,,---,0.00,VWS V14.01,2013-06-21 07:36:00,
2013-06-21 03:41:00,57.3,57.3,30.27,West,264,0.0,0.0,100,0.00,,---,0.00,VWS V14.01,2013-06-21 07:41:00,
2013-06-21 03:46:00,57.3,57.3,30.27,West,264,0.0,0.0,100,0.00,,---,0.00,VWS V14.01,2013-06-21 07:46:00,
2013-06-21 03:51:00,57.3,57.3,30.27,West,264,0.0,0.0,100,0.00,,---,0.00,VWS V14.01,2013-06-21 07:51:00,
2013-06-21 03:56:00,57.1,57.1,30.27,West,264,0.0,0.0,100,0.00,,---,0.00,VWS V14.01,2013-06-21 07:56:00,
2013-06-21 04:01:00,57.1,57.1,30.27,West,264,0.0,0.0,100,0.00,,---,0.00,VWS V14.01,2013-06-21 08:01:00,
2013-06-21 04:06:00,57.1,57.1,30.27,West,264,0.0,0.0,100,0.00,,---,0.00,VWS V14.01,2013-06-21 08:06:00,
2013-06-21 04:11:00,57.1,57.1,30.27,West,264,0.0,0.0,100,0.00,,---,0.00,VWS V14.01,2013-06-21 08:11:00,
2013-06-21 04:16:00,57.1,57.1,30.27,West,264,0.0,0.0,100,0.00,,---,0.00,VWS V14.01,2013-06-21 08:16:00,
2013-06-21 04:21:00,56.9,56.9,30.27,West,264,0.0,0.0,100,0.00,,---,0.00,VWS V14.01,2013-06-21 08:21:00,
2013-06-21 04:26:00,56.9,56.9,30.27,West,264,0.0,0.0,100,0.00,,---,0.00,VWS V14.01,2013-06-21 08:26:00,
2013-06-21 04:31:00,56.7,56.7,30.27,West,264,0.0,0.0,100,0.00,,---,0.00,VWS V14.01,2013-06-21 08:31:00,
2013-06-21 04:36:00,56.7,56.7,30.30,West,264,0.0,0.0,100,0.00,,---,0.00,VWS V14.01,2013-06-21 08:36:00,
2013-06-21 04:43:00,56.5,56.5,30.30,West,267,0.0,0.0,100,0.00,,---,0.00,VWS V14.01,2013-06-21 08:43:00,
2013-06-21 04:48:00,56.4,56.4,30.30,West,267,0.0,0.0,100,0.00,,---,0.00,VWS V14.01,2013-06-21 08:48:00,
2013-06-21 04:53:00,56.4,56.4,30.30,West,268,0.0,0.0,100,0.00,,---,0.00,VWS V14.01,2013-06-21 08:53:00,
2013-06-21 04:58:00,56.4,56.4,30.30,West,268,0.0,0.0,100,0.00,,---,0.00,VWS V14.01,2013-06-21 08:58:00,
2013-06-21 05:03:00,56.4,56.4,30.30,West,268,0.0,0.0,100,0.00,,---,0.00,VWS V14.01,2013-06-21 09:03:00,
2013-06-21 05:08:00,56.4,56.4,30.30,West,268,0.0,0.0,100,0.00,,---,0.00,VWS V14.01,2013-06-21 09:08:00,
2013-06-21 05:13:00,56.4,56.4,30.30,West,268,0.0,0.0,100,0.00,,---,0.00,VWS V14.01,2013-06-21 09:13:00,
2013-06-21 05:18:00,56.4,56.4,30.30,West,268,0.0,0.0,100,0.00,,---,0.00,VWS V14.01,2013-06-21 09:18:00,
2013-06-21 05:23:00,56.4,56.4,30.30,West,268,0.0,0.0,100,0.00,,---,0.00,VWS V14.01,2013-06-21 09:23:00,
2013-06-21 05:28:00,56.7,56.7,30.30,West,268,0.0,0.0,100,0.00,,---,0.00,VWS V14.01,2013-06-21 09:28:00,
2013-06-21 05:33:00,56.7,56.7,30.30,West,268,0.0,0.0,100,0.00,,---,0.00,VWS V14.01,2013-06-21 09:33:00,
2013-06-21 05:38:00,56.9,56.9,30.30,West,268,0.0,0.0,100,0.00,,---,0.00,VWS V14.01,2013-06-21 09:38:00,
2013-06-21 05:43:00,57.1,57.1,30.30,West,268,0.0,0.0,100,0.00,,---,0.00,VWS V14.01,2013-06-21 09:43:00,
2013-06-21 05:48:00,57.1,57.1,30.30,West,268,0.0,0.0,100,0.00,,---,0.00,VWS V14.01,2013-06-21 09:48:00,
2013-06-21 05:53:00,57.1,57.1,30.30,West,268,0.0,0.0,100,0.00,,---,0.00,VWS V14.01,2013-06-21 09:53:00,
2013-06-21 05:58:00,57.1,57.1,30.30,West,268,0.0,0.0,100,0.00,,---,0.00,VWS V14.01,2013-06-21 09:58:00,
2013-06-21 06:03:00,57.1,57.1,30.30,West,268,0.0,0.0,100,0.00,,---,0.00,VWS V14.01,2013-06-21 10:03:00,
2013-06-21 06:08:00,57.1,57.1,30.30,West,268,0.0,0.0,100,0.00,,---,0.00,VWS V14.01,2013-06-21 10:08:00,
2013-06-21 06:13:00,57.1,57.1,30.30,West,268,0.0,0.0,100,0.00,,---,0.00,VWS V14.01,2013-06-21 10:13:00,
2013-06-21 06:18:00,57.1,57.1,30.30,WNW,283,0.0,0.0,100,0.00,,---,0.00,VWS V14.01,2013-06-21 10:18:00,
2013-06-21 06:23:00,57.1,57.1,30.30,WNW,303,0.0,0.0,100,0.00,,---,0.00,VWS V14.01,2013-06-21 10:23:00,
2013-06-21 06:28:00,57.1,57.1,30.30,West,268,0.0,0.0,100,0.00,,---,0.00,VWS V14.01,2013-06-21 10:28:00,
2013-06-21 06:33:00,57.4,57.4,30.30,West,268,0.0,0.0,100,0.00,,---,0.00,VWS V14.01,2013-06-21 10:33:00,
2013-06-21 06:38:00,57.6,57.6,30.30,West,268,0.0,0.0,100,0.00,,---,0.00,VWS V14.01,2013-06-21 10:38:00,
2013-06-21 06:43:00,57.8,57.8,30.30,West,268,0.0,0.0,100,0.00,,---,0.00,VWS V14.01,2013-06-21 10:43:00,
2013-06-21 06:48:00,57.8,57.8,30.30,West,268,0.0,0.0,100,0.00,,---,0.00,VWS V14.01,2013-06-21 10:48:00,
2013-06-21 06:53:00,57.8,57.8,30.30,West,268,0.0,0.0,100,0.00,,---,0.00,VWS V14.01,2013-06-21 10:53:00,
2013-06-21 06:58:00,58.0,58.0,30.30,West,268,0.0,0.0,100,0.00,,---,0.00,VWS V14.01,2013-06-21 10:58:00,
2013-06-21 07:02:00,58.5,58.5,30.30,West,268,0.0,0.0,100,0.00,,---,0.00,VWS V14.01,2013-06-21 11:02:00,
2013-06-21 07:07:00,59.4,59.4,30.30,West,268,0.0,0.0,100,0.00,,---,0.00,VWS V14.01,2013-06-21 11:07:00,
2013-06-21 07:12:00,60.1,60.1,30.30,West,268,0.0,0.0,100,0.00,,---,0.00,VWS V14.01,2013-06-21 11:12:00,
2013-06-21 07:17:00,60.7,60.7,30.30,West,268,0.0,0.0,100,0.00,,---,0.00,VWS V14.01,2013-06-21 11:17:00,
2013-06-21 07:22:00,61.2,61.2,30.33,West,269,0.0,0.0,100,0.00,,---,0.00,VWS V14.01,2013-06-21 11:22:00,
2013-06-21 07:27:00,61.2,60.7,30.33,West,270,0.0,0.0,98,0.00,,---,0.00,VWS V14.01,2013-06-21 11:27:00,
2013-06-21 07:32:00,60.9,59.4,30.33,West,270,0.0,0.0,95,0.00,,---,0.00,VWS V14.01,2013-06-21 11:32:00,
2013-06-21 07:37:00,61.2,59.5,30.30,West,270,0.0,0.0,94,0.00,,---,0.00,VWS V14.01,2013-06-21 11:37:00,
2013-06-21 07:42:00,63.7,61.4,30.30,West,270,0.0,0.0,92,0.00,,---,0.00,VWS V14.01,2013-06-21 11:42:00,
2013-06-21 07:47:00,65.4,58.0,30.30,SSE,154,0.0,0.0,77,0.00,,---,0.00,VWS V14.01,2013-06-21 11:47:00,
2013-06-21 07:52:00,66.3,55.4,30.30,ESE,119,0.0,0.0,68,0.00,,---,0.00,VWS V14.01,2013-06-21 11:52:00,
2013-06-21 07:57:00,66.8,55.5,30.30,NNE,19,0.0,0.0,67,0.00,,---,0.00,VWS V14.01,2013-06-21 11:57:00,
2013-06-21 08:02:00,67.9,55.7,30.30,SE,140,0.0,0.0,65,0.00,,---,0.00,VWS V14.01,2013-06-21 12:02:00,
2013-06-21 08:07:00,67.0,55.3,30.30,South,185,0.0,0.0,66,0.00,,---,0.00,VWS V14.01,2013-06-21 12:07:00,
2013-06-21 08:12:00,68.1,56.7,30.30,SSW,196,0.0,0.0,67,0.00,,---,0.00,VWS V14.01,2013-06-21 12:12:00,
2013-06-21 08:17:00,68.4,55.8,30.30,South,183,0.0,0.0,64,0.00,,---,0.00,VWS V14.01,2013-06-21 12:17:00,
2013-06-21 08:22:00,69.5,57.2,30.33,South,184,0.0,0.0,65,0.00,,---,0.00,VWS V14.01,2013-06-21 12:22:00,
2013-06-21 08:27:00,69.0,55.4,30.33,SW,226,0.0,4.5,62,0.00,,---,0.00,VWS V14.01,2013-06-21 12:27:00,
2013-06-21 08:32:00,70.4,56.8,30.33,SSW,202,3.1,5.4,62,0.00,,---,0.00,VWS V14.01,2013-06-21 12:32:00,
2013-06-21 08:37:00,69.5,55.9,30.33,WSW,250,4.9,4.9,62,0.00,,---,0.00,VWS V14.01,2013-06-21 12:37:00,
2013-06-21 08:42:00,71.1,57.9,30.33,SSE,149,3.1,4.0,63,0.00,,---,0.00,VWS V14.01,2013-06-21 12:42:00,
2013-06-21 08:47:00,71.3,57.2,30.33,SSW,209,2.7,4.5,61,0.00,,---,0.00,VWS V14.01,2013-06-21 12:47:00,
2013-06-21 08:52:00,69.3,55.8,30.30,ESE,105,0.0,2.7,62,0.00,,---,0.00,VWS V14.01,2013-06-21 12:52:00,
2013-06-21 08:57:00,67.7,54.7,30.30,East,100,0.0,0.0,63,0.00,,---,0.00,VWS V14.01,2013-06-21 12:57:00,
2013-06-21 09:02:00,66.6,54.9,30.30,SSW,206,0.0,0.0,66,0.00,,---,0.00,VWS V14.01,2013-06-21 13:02:00,
2013-06-21 09:07:00,67.0,55.3,30.33,SSE,154,0.0,0.0,66,0.00,,---,0.00,VWS V14.01,2013-06-21 13:07:00,
2013-06-21 09:12:00,68.6,56.0,30.33,SW,226,3.1,4.5,64,0.00,,---,0.00,VWS V14.01,2013-06-21 13:12:00,
2013-06-21 09:17:00,68.1,55.4,30.33,East,93,0.0,3.6,64,0.00,,---,0.00,VWS V14.01,2013-06-21 13:17:00,
2013-06-21 09:22:00,67.5,54.9,30.30,West,267,4.9,6.7,64,0.00,,---,0.00,VWS V14.01,2013-06-21 13:22:00,
2013-06-21 09:27:00,67.7,56.0,30.30,West,274,4.0,4.0,66,0.00,,---,0.00,VWS V14.01,2013-06-21 13:27:00,
2013-06-21 09:32:00,68.6,56.4,30.30,WSW,252,0.0,0.0,65,0.00,,---,0.00,VWS V14.01,2013-06-21 13:32:00,
2013-06-21 09:38:00,71.1,57.9,30.33,SE,144,0.0,0.0,63,0.00,,---,0.00,VWS V14.01,2013-06-21 13:38:00,
2013-06-21 09:43:00,71.1,57.5,30.33,South,174,0.0,0.0,62,0.00,,---,0.00,VWS V14.01,2013-06-21 13:43:00,
2013-06-21 09:48:00,73.6,58.9,30.33,West,261,2.7,3.1,60,0.00,,---,0.00,VWS V14.01,2013-06-21 13:48:00,
2013-06-21 09:53:00,73.6,56.5,30.30,West,262,4.5,4.9,55,0.00,,---,0.00,VWS V14.01,2013-06-21 13:53:00,
2013-06-21 09:58:00,72.0,56.0,30.30,WSW,237,0.0,0.0,57,0.00,,---,0.00,VWS V14.01,2013-06-21 13:58:00,
2013-06-21 10:03:00,72.9,56.8,30.30,ESE,123,3.6,4.5,57,0.00,,---,0.00,VWS V14.01,2013-06-21 14:03:00,
2013-06-21 10:08:00,71.1,54.6,30.30,ESE,123,3.6,4.0,56,0.00,,---,0.00,VWS V14.01,2013-06-21 14:08:00,
2013-06-21 10:13:00,69.9,55.4,30.30,SE,127,0.0,0.0,60,0.00,,---,0.00,VWS V14.01,2013-06-21 14:13:00,
2013-06-21 10:18:00,69.7,55.7,30.30,WSW,258,0.0,3.1,61,0.00,,---,0.00,VWS V14.01,2013-06-21 14:18:00,
2013-06-21 10:23:00,72.2,58.0,30.33,SW,236,0.0,0.0,61,0.00,,---,0.00,VWS V14.01,2013-06-21 14:23:00,
2013-06-21 10:28:00,72.7,55.7,30.33,WSW,250,0.0,5.4,55,0.00,,---,0.00,VWS V14.01,2013-06-21 14:28:00,
2013-06-21 10:33:00,72.2,57.1,30.33,SSW,198,3.1,3.6,59,0.00,,---,0.00,VWS V14.01,2013-06-21 14:33:00,
2013-06-21 10:38:00,72.0,55.5,30.33,South,169,0.0,0.0,56,0.00,,---,0.00,VWS V14.01,2013-06-21 14:38:00,
2013-06-21 10:43:00,73.1,57.0,30.33,SE,145,0.0,0.0,57,0.00,,---,0.00,VWS V14.01,2013-06-21 14:43:00,
2013-06-21 10:48:00,73.6,57.0,30.33,ESE,114,4.0,4.0,56,0.00,,---,0.00,VWS V14.01,2013-06-21 14:48:00,
2013-06-21 10:53:00,72.4,55.3,30.33,East,97,0.0,3.1,55,0.00,,---,0.00,VWS V14.01,2013-06-21 14:53:00,
2013-06-21 10:58:00,72.4,55.8,30.33,ESE,112,4.0,4.9,56,0.00,,---,0.00,VWS V14.01,2013-06-21 14:58:00,
2013-06-21 11:03:00,72.7,57.6,30.33,East,99,3.1,4.0,59,0.00,,---,0.00,VWS V14.01,2013-06-21 15:03:00,
2013-06-21 11:08:00,75.3,57.0,30.33,ESE,118,3.6,4.5,53,0.00,,---,0.00,VWS V14.01,2013-06-21 15:08:00,
2013-06-21 11:13:00,76.7,59.3,30.33,West,263,5.4,5.8,55,0.00,,---,0.00,VWS V14.01,2013-06-21 15:13:00,
2013-06-21 11:18:00,76.3,57.4,30.33,SE,132,4.0,4.5,52,0.00,,---,0.00,VWS V14.01,2013-06-21 15:18:00,
2013-06-21 11:23:00,78.1,58.6,30.33,SSE,150,3.6,4.9,51,0.00,,---,0.00,VWS V14.01,2013-06-21 15:23:00,
2013-06-21 11:28:00,78.7,58.5,30.33,ESE,109,0.0,3.6,50,0.00,,---,0.00,VWS V14.01,2013-06-21 15:28:00,
2013-06-21 11:33:00,76.9,56.8,30.33,West,261,4.9,4.9,50,0.00,,---,0.00,VWS V14.01,2013-06-21 15:33:00,
2013-06-21 11:38:00,74.7,57.0,30.33,ESE,104,3.6,4.5,54,0.00,,---,0.00,VWS V14.01,2013-06-21 15:38:00,
2013-06-21 11:43:00,74.2,56.5,30.33,WNW,297,0.0,0.0,54,0.00,,---,0.00,VWS V14.01,2013-06-21 15:43:00,
2013-06-21 11:48:00,75.3,57.0,30.33,SE,136,2.7,4.5,53,0.00,,---,0.00,VWS V14.01,2013-06-21 15:48:00,
2013-06-21 11:53:00,78.0,58.9,30.33,SSW,194,3.6,4.5,52,0.00,,---,0.00,VWS V14.01,2013-06-21 15:53:00,
2013-06-21 11:58:00,76.7,56.7,30.33,SSW,201,4.5,4.5,50,0.00,,---,0.00,VWS V14.01,2013-06-21 15:58:00,
2013-06-21 12:03:00,74.2,55.4,30.33,WSW,255,0.0,5.4,52,0.00,,---,0.00,VWS V14.01,2013-06-21 16:03:00,
2013-06-21 12:08:00,77.1,57.6,30.33,WSW,245,3.6,3.6,51,0.00,,---,0.00,VWS V14.01,2013-06-21 16:08:00,
2013-06-21 12:13:00,78.0,58.4,30.33,SE,124,0.0,6.9,51,0.00,,---,0.00,VWS V14.01,2013-06-21 16:13:00,
2013-06-21 12:18:00,79.0,58.8,30.33,ESE,123,4.5,4.5,50,0.00,,---,0.00,VWS V14.01,2013-06-21 16:18:00,
2013-06-21 12:23:00,78.0,57.8,30.33,SSW,210,2.7,4.9,50,0.00,,---,0.00,VWS V14.01,2013-06-21 16:23:00,
2013-06-21 12:28:00,79.4,59.7,30.33,ESE,103,4.0,4.5,51,0.00,,---,0.00,VWS V14.01,2013-06-21 16:28:00,
2013-06-21 12:33:00,80.3,59.4,30.33,WSW,250,4.9,6.3,49,0.00,,---,0.00,VWS V14.01,2013-06-21 16:33:00,
2013-06-21 12:38:00,79.4,59.2,30.30,SE,135,2.7,6.7,50,0.00,,---,0.00,VWS V14.01,2013-06-21 16:38:00,
2013-06-21 12:43:00,78.9,58.1,30.30,South,184,5.4,7.8,49,0.00,,---,0.00,VWS V14.01,2013-06-21 16:43:00,
2013-06-21 12:48:00,79.9,59.7,30.30,South,169,0.0,4.0,50,0.00,,---,0.00,VWS V14.01,2013-06-21 16:48:00,
2013-06-21 12:53:00,81.7,60.7,30.30,ESE,104,3.1,5.8,49,0.00,,---,0.00,VWS V14.01,2013-06-21 16:53:00,
2013-06-21 12:58:00,79.6,58.8,30.30,West,273,9.6,10.5,49,0.00,,---,0.00,VWS V14.01,2013-06-21 16:58:00,
2013-06-21 13:03:00,79.6,58.8,30.30,SSW,206,5.8,7.4,49,0.00,,---,0.00,VWS V14.01,2013-06-21 17:03:00,
2013-06-21 13:08:00,80.5,59.6,30.30,WSW,251,4.0,5.8,49,0.00,,---,0.00,VWS V14.01,2013-06-21 17:08:00,
2013-06-21 13:13:00,80.1,59.2,30.30,SE,145,3.1,5.4,49,0.00,,---,0.00,VWS V14.01,2013-06-21 17:13:00,
2013-06-21 13:18:00,79.6,58.8,30.30,SW,218,4.9,4.9,49,0.00,,---,0.00,VWS V14.01,2013-06-21 17:18:00,
2013-06-21 13:23:00,79.2,59.0,30.30,SSW,194,0.0,0.0,50,0.00,,---,0.00,VWS V14.01,2013-06-21 17:23:00,
2013-06-21 13:28:00,77.8,57.7,30.30,WSW,245,0.0,3.6,50,0.00,,---,0.00,VWS V14.01,2013-06-21 17:28:00,
2013-06-21 13:33:00,77.4,57.3,30.30,SSE,155,2.7,4.5,50,0.00,,---,0.00,VWS V14.01,2013-06-21 17:33:00,
2013-06-21 13:38:00,80.5,60.7,30.30,SSE,164,4.0,4.0,51,0.00,,---,0.00,VWS V14.01,2013-06-21 17:38:00,
2013-06-21 13:44:00,81.6,60.6,30.30,SW,230,3.6,6.3,49,0.00,,---,0.00,VWS V14.01,2013-06-21 17:44:00,
2013-06-21 13:45:00,81.9,60.9,30.30,SSE,153,3.6,4.0,49,0.00,,---,0.00,VWS V14.01,2013-06-21 17:45:00,
2013-06-21 13:46:00,81.9,60.9,30.30,SE,140,0.0,4.0,49,0.00,,---,0.00,VWS V14.01,2013-06-21 17:46:00,
2013-06-21 13:51:00,81.0,60.1,30.30,WSW,241,5.8,6.9,49,0.00,,---,0.00,VWS V14.01,2013-06-21 17:51:00,
2013-06-21 13:56:00,82.6,61.6,30.30,SE,130,3.1,4.9,49,0.00,,---,0.00,VWS V14.01,2013-06-21 17:56:00,
2013-06-21 14:02:00,81.9,60.9,30.30,SSW,192,0.0,4.0,49,0.00,,---,0.00,VWS V14.01,2013-06-21 18:02:00,
2013-06-21 14:07:00,82.5,61.4,30.30,SSW,200,3.1,6.9,49,0.00,,---,0.00,VWS V14.01,2013-06-21 18:07:00,
2013-06-21 14:12:00,81.9,61.5,30.30,West,281,6.9,6.9,50,0.00,,---,0.00,VWS V14.01,2013-06-21 18:12:00,
2013-06-21 14:17:00,83.2,61.5,30.30,South,182,0.0,4.0,48,0.00,,---,0.00,VWS V14.01,2013-06-21 18:17:00,
2013-06-21 14:23:00,81.7,60.7,30.30,ESE,105,2.7,7.8,49,0.00,,---,0.00,VWS V14.01,2013-06-21 18:23:00,
2013-06-21 14:24:00,81.2,59.7,30.30,SW,231,5.4,6.9,48,0.00,,---,0.00,VWS V14.01,2013-06-21 18:24:00,
2013-06-21 14:29:00,82.1,60.5,30.30,East,91,3.1,5.4,48,0.00,,---,0.00,VWS V14.01,2013-06-21 18:29:00,
2013-06-21 14:34:00,80.1,59.8,30.30,ESE,118,3.1,4.5,50,0.00,,---,0.00,VWS V14.01,2013-06-21 18:34:00,
2013-06-21 14:39:00,78.9,58.7,30.27,West,272,4.5,5.8,50,0.00,,---,0.00,VWS V14.01,2013-06-21 18:39:00,
2013-06-21 14:44:00,78.0,58.4,30.27,South,169,3.1,3.6,51,0.00,,---,0.00,VWS V14.01,2013-06-21 18:44:00,
2013-06-21 14:45:00,78.3,58.7,30.27,South,179,3.6,4.9,51,0.00,,---,0.00,VWS V14.01,2013-06-21 18:45:00,
2013-06-21 14:50:00,80.7,60.3,30.27,SSE,165,0.0,3.6,50,0.00,,---,0.00,VWS V14.01,2013-06-21 18:50:00,
2013-06-21 14:55:00,81.4,61.0,30.27,West,263,3.1,3.1,50,0.00,,---,0.00,VWS V14.01,2013-06-21 18:55:00,
2013-06-21 15:00:00,81.0,60.7,30.27,NE,45,0.0,0.0,50,0.00,,---,0.00,VWS V14.01,2013-06-21 19:00:00,
2013-06-21 15:06:00,79.6,58.8,30.27,SW,234,4.0,5.8,49,0.00,,---,0.00,VWS V14.01,2013-06-21 19:06:00,
2013-06-21 15:11:00,79.0,58.3,30.27,WSW,237,3.6,6.3,49,0.00,,---,0.00,VWS V14.01,2013-06-21 19:11:00,
2013-06-21 15:16:00,78.0,58.4,30.27,West,264,3.6,5.4,51,0.00,,---,0.00,VWS V14.01,2013-06-21 19:16:00,
2013-06-21 15:20:00,78.3,59.3,30.27,WSW,257,3.6,4.0,52,0.00,,---,0.00,VWS V14.01,2013-06-21 19:20:00,
2013-06-21 15:25:00,78.9,58.7,30.27,West,264,0.0,0.0,50,0.00,,---,0.00,VWS V14.01,2013-06-21 19:25:00,
2013-06-21 15:30:00,79.6,59.3,30.27,WSW,258,4.0,4.0,50,0.00,,---,0.00,VWS V14.01,2013-06-21 19:30:00,
2013-06-21 15:35:00,78.5,58.3,30.27,WSW,237,5.4,5.4,50,0.00,,---,0.00,VWS V14.01,2013-06-21 19:35:00,
2013-06-21 15:40:00,78.9,58.7,30.27,WSW,248,6.3,6.3,50,0.00,,---,0.00,VWS V14.01,2013-06-21 19:40:00,
2013-06-21 15:42:00,78.3,58.2,30.27,WSW,249,6.7,9.6,50,0.00,,---,0.00,VWS V14.01,2013-06-21 19:42:00,
2013-06-21 15:44:00,78.5,57.8,30.27,WSW,255,8.3,8.7,49,0.00,,---,0.00,VWS V14.01,2013-06-21 19:44:00,
2013-06-21 15:49:00,78.0,57.8,30.27,WSW,238,3.1,5.4,50,0.00,,---,0.00,VWS V14.01,2013-06-21 19:49:00,
2013-06-21 15:54:00,77.6,58.1,30.27,West,262,5.4,6.7,51,0.00,,---,0.00,VWS V14.01,2013-06-21 19:54:00,
2013-06-21 15:59:00,77.2,57.7,30.27,WSW,246,4.0,5.8,51,0.00,,---,0.00,VWS V14.01,2013-06-21 19:59:00,
2013-06-21 16:04:00,77.4,57.9,30.27,WSW,254,5.8,6.7,51,0.00,,---,0.00,VWS V14.01,2013-06-21 20:04:00,
2013-06-21 16:08:00,77.2,57.7,30.27,WSW,242,4.0,4.5,51,0.00,,---,0.00,VWS V14.01,2013-06-21 20:08:00,
2013-06-21 16:11:00,77.6,58.1,30.27,SSW,202,3.6,4.5,51,0.00,,---,0.00,VWS V14.01,2013-06-21 20:11:00,
2013-06-21 16:16:00,78.0,57.8,30.27,SW,215,0.0,0.0,50,0.00,,---,0.00,VWS V14.01,2013-06-21 20:16:00,
2013-06-21 16:21:00,78.5,60.0,30.27,SSW,207,4.9,4.9,53,0.00,,---,0.00,VWS V14.01,2013-06-21 20:21:00,
2013-06-21 16:26:00,77.8,57.7,30.27,SSE,153,0.0,6.7,50,0.00,,---,0.00,VWS V14.01,2013-06-21 20:26:00,
2013-06-21 16:31:00,77.4,57.9,30.27,WSW,246,4.0,6.3,51,0.00,,---,0.00,VWS V14.01,2013-06-21 20:31:00,
2013-06-21 16:36:00,77.4,57.9,30.27,SW,228,4.0,6.3,51,0.00,,---,0.00,VWS V14.01,2013-06-21 20:36:00,
2013-06-21 16:41:00,77.2,57.7,30.27,ESE,123,0.0,0.0,51,0.00,,---,0.00,VWS V14.01,2013-06-21 20:41:00,
2013-06-21 16:46:00,77.1,57.6,30.27,WSW,246,2.7,5.8,51,0.00,,---,0.00,VWS V14.01,2013-06-21 20:46:00,
2013-06-21 16:51:00,77.2,58.3,30.27,SW,231,0.0,3.1,52,0.00,,---,0.00,VWS V14.01,2013-06-21 20:51:00,
2013-06-21 16:56:00,78.1,59.1,30.27,SSW,193,0.0,0.0,52,0.00,,---,0.00,VWS V14.01,2013-06-21 20:56:00,
2013-06-21 17:01:00,78.1,58.6,30.27,SSE,160,0.0,0.0,51,0.00,,---,0.00,VWS V14.01,2013-06-21 21:01:00,
2013-06-21 17:04:00,78.0,57.8,30.27,South,180,4.0,4.0,50,0.00,,---,0.00,VWS V14.01,2013-06-21 21:04:00,
2013-06-21 17:09:00,77.4,57.3,30.27,SW,218,4.5,5.4,50,0.00,,---,0.00,VWS V14.01,2013-06-21 21:09:00,
2013-06-21 17:14:00,77.2,57.7,30.27,SW,214,0.0,5.4,51,0.00,,---,0.00,VWS V14.01,2013-06-21 21:14:00,
2013-06-21 17:19:00,77.1,58.1,30.27,SSW,207,0.0,2.7,52,0.00,,---,0.00,VWS V14.01,2013-06-21 21:19:00,
2013-06-21 17:24:00,77.1,58.1,30.27,SW,230,3.6,4.0,52,0.00,,---,0.00,VWS V14.01,2013-06-21 21:24:00,
2013-06-21 17:29:00,77.4,59.5,30.27,South,188,0.0,2.7,54,0.00,,---,0.00,VWS V14.01,2013-06-21 21:29:00,
2013-06-21 17:34:00,77.2,58.3,30.27,WSW,257,0.0,4.9,52,0.00,,---,0.00,VWS V14.01,2013-06-21 21:34:00,
2013-06-21 17:39:00,76.9,57.9,30.27,WSW,257,3.1,4.0,52,0.00,,---,0.00,VWS V14.01,2013-06-21 21:39:00,
2013-06-21 17:44:00,76.5,58.1,30.27,SW,230,3.1,4.0,53,0.00,,---,0.00,VWS V14.01,2013-06-21 21:44:00,
2013-06-21 17:49:00,76.3,58.0,30.27,SW,214,0.0,0.0,53,0.00,,---,0.00,VWS V14.01,2013-06-21 21:49:00,
2013-06-21 17:54:00,76.2,57.3,30.27,SW,225,0.0,4.0,52,0.00,,---,0.00,VWS V14.01,2013-06-21 21:54:00,
2013-06-21 17:59:00,76.0,57.6,30.27,WSW,250,2.7,3.6,53,0.00,,---,0.00,VWS V14.01,2013-06-21 21:59:00,
2013-06-21 18:04:00,75.6,58.3,30.27,WSW,246,0.0,2.7,55,0.00,,---,0.00,VWS V14.01,2013-06-21 22:04:00,
2013-06-21 18:09:00,75.4,58.7,30.27,South,175,0.0,0.0,56,0.00,,---,0.00,VWS V14.01,2013-06-21 22:09:00,
2013-06-21 18:14:00,75.1,58.3,30.27,South,185,0.0,0.0,56,0.00,,---,0.00,VWS V14.01,2013-06-21 22:14:00,
2013-06-21 18:19:00,75.1,60.3,30.27,South,185,0.0,0.0,60,0.00,,---,0.00,VWS V14.01,2013-06-21 22:19:00,
2013-06-21 18:24:00,74.9,60.6,30.27,South,185,0.0,0.0,61,0.00,,---,0.00,VWS V14.01,2013-06-21 22:24:00,
2013-06-21 18:29:00,74.7,60.4,30.27,South,185,0.0,0.0,61,0.00,,---,0.00,VWS V14.01,2013-06-21 22:29:00,
2013-06-21 18:34:00,74.7,59.9,30.27,ESE,121,0.0,0.0,60,0.00,,---,0.00,VWS V14.01,2013-06-21 22:34:00,
2013-06-21 18:39:00,74.9,60.6,30.24,South,189,0.0,0.0,61,0.00,,---,0.00,VWS V14.01,2013-06-21 22:39:00,
2013-06-21 18:44:00,74.7,59.9,30.24,SSE,168,0.0,0.0,60,0.00,,---,0.00,VWS V14.01,2013-06-21 22:44:00,
2013-06-21 19:07:00,74.2,59.9,30.27,SW,227,0.0,0.0,61,0.00,,---,0.00,VWS V14.01,2013-06-21 23:07:00,
2013-06-21 19:13:00,73.8,59.5,30.27,SW,227,0.0,0.0,61,0.00,,---,0.00,VWS V14.01,2013-06-21 23:13:00,
2013-06-21 19:17:00,73.5,59.2,30.27,SW,227,0.0,0.0,61,0.00,,---,0.00,VWS V14.01,2013-06-21 23:17:00,
2013-06-21 19:22:00,73.3,59.0,30.27,SW,227,0.0,0.0,61,0.00,,---,0.00,VWS V14.01,2013-06-21 23:22:00,
2013-06-21 19:27:00,73.1,59.3,30.27,SW,227,0.0,0.0,62,0.00,,---,0.00,VWS V14.01,2013-06-21 23:27:00,
2013-06-21 19:32:00,72.9,59.2,30.27,SW,227,0.0,0.0,62,0.00,,---,0.00,VWS V14.01,2013-06-21 23:32:00,
2013-06-21 19:37:00,72.7,59.0,30.27,SW,227,0.0,0.0,62,0.00,,---,0.00,VWS V14.01,2013-06-21 23:37:00,
2013-06-21 19:42:00,72.7,59.0,30.27,SW,228,0.0,0.0,62,0.00,,---,0.00,VWS V14.01,2013-06-21 23:42:00,
2013-06-21 19:50:00,72.4,58.6,30.27,SW,228,0.0,0.0,62,0.00,,---,0.00,VWS V14.01,2013-06-21 23:50:00,
2013-06-21 19:55:00,71.7,68.6,30.16,SSW,198,1.0,1.0,90,0.00,,---,0.00,VWS V14.01,2013-06-21 23:55:00,
2013-06-21 20:00:00,77.5,63.5,30.16,WSW,238,0.0,1.0,62,0.00,,---,0.00,VWS V14.01,2013-06-22 00:00:00,
2013-06-21 20:05:00,77.2,62.2,30.16,WSW,238,0.0,1.0,60,0.00,,---,0.00,VWS V14.01,2013-06-22 00:05:00,
2013-06-21 20:10:00,76.9,63.8,30.15,WSW,238,0.0,1.0,64,0.00,,---,0.00,VWS V14.01,2013-06-22 00:10:00,
2013-06-21 20:21:00,76.2,63.6,30.16,WSW,238,0.0,0.0,65,12.68,,---,0.00,VWS V14.01,2013-06-22 00:21:00,
2013-06-21 20:43:00,73.5,63.9,30.16,WNW,287,0.0,0.0,72,12.68,,---,0.00,VWS V14.01,2013-06-22 00:43:00,
2013-06-21 20:48:00,72.7,64.7,30.16,WNW,295,1.0,1.0,76,12.68,,---,0.00,VWS V14.01,2013-06-22 00:48:00,
2013-06-21 20:54:00,72.2,64.2,30.16,West,280,0.0,1.0,76,12.68,,---,0.00,VWS V14.01,2013-06-22 00:54:00,
2013-06-21 20:58:00,71.8,64.2,30.16,WNW,290,3.0,3.0,77,12.68,,---,0.00,VWS V14.01,2013-06-22 00:58:00,
2013-06-21 21:03:00,71.6,63.6,30.16,WNW,289,0.0,3.0,76,13.94,,---,0.00,VWS V14.01,2013-06-22 01:03:00,
2013-06-21 21:08:00,71.4,63.5,30.16,WSW,251,0.0,3.0,76,13.94,,---,0.00,VWS V14.01,2013-06-22 01:08:00,
2013-06-21 21:13:00,71.5,63.2,30.16,West,272,1.0,3.0,75,13.94,,---,0.00,VWS V14.01,2013-06-22 01:13:00,
2013-06-21 21:18:00,71.6,62.9,30.16,SW,222,0.0,3.0,74,13.94,,---,0.00,VWS V14.01,2013-06-22 01:18:00,
2013-06-21 21:23:00,71.7,63.0,30.16,SW,217,0.0,3.0,74,13.94,,---,0.00,VWS V14.01,2013-06-22 01:23:00,
2013-06-21 21:28:00,71.5,62.8,30.16,SW,217,0.0,3.0,74,13.94,,---,0.00,VWS V14.01,2013-06-22 01:28:00,
2013-06-21 21:33:00,71.3,62.6,30.16,WNW,286,0.0,1.0,74,0.00,,---,0.00,VWS V14.01,2013-06-22 01:33:00,
2013-06-21 21:38:00,71.1,62.8,30.16,WNW,286,0.0,1.0,75,0.00,,---,0.00,VWS V14.01,2013-06-22 01:38:00,
2013-06-21 21:44:00,70.7,62.4,30.16,WNW,285,0.0,1.0,75,0.00,,---,0.00,VWS V14.01,2013-06-22 01:44:00,
2013-06-21 21:48:00,70.5,62.6,30.16,WNW,285,0.0,1.0,76,0.00,,---,0.00,VWS V14.01,2013-06-22 01:48:00,
2013-06-21 21:53:00,70.3,62.4,30.17,WNW,287,0.0,1.0,76,0.00,,---,0.00,VWS V14.01,2013-06-22 01:53:00,
2013-06-21 21:58:00,70.3,62.4,30.17,WNW,287,0.0,1.0,76,0.00,,---,0.00,VWS V14.01,2013-06-22 01:58:00,
2013-06-21 22:03:00,70.1,62.6,30.17,NW,316,0.0,1.0,77,0.00,,---,0.00,VWS V14.01,2013-06-22 02:03:00,
2013-06-21 22:08:00,69.2,62.8,30.17,NW,322,0.0,1.0,80,0.00,,---,0.00,VWS V14.01,2013-06-22 02:08:00,
2013-06-21 22:13:00,68.6,62.9,30.18,WNW,284,1.0,2.0,82,0.00,,---,0.00,VWS V14.01,2013-06-22 02:13:00,
2013-06-21 22:18:00,68.4,63.0,30.18,WNW,285,0.0,2.0,83,0.00,,---,0.00,VWS V14.01,2013-06-22 02:18:00,
2013-06-21 22:23:00,68.3,62.6,30.18,WNW,284,2.0,2.0,82,0.00,,---,0.00,VWS V14.01,2013-06-22 02:23:00,
2013-06-21 22:28:00,68.4,62.7,30.18,WNW,285,1.0,2.0,82,0.00,,---,0.00,VWS V14.01,2013-06-22 02:28:00,
2013-06-21 22:33:00,68.4,62.0,30.18,WNW,295,1.0,3.0,80,0.00,,---,0.00,VWS V14.01,2013-06-22 02:33:00,
2013-06-21 22:38:00,68.5,62.1,30.18,West,277,0.0,3.0,80,0.00,,---,0.00,VWS V14.01,2013-06-22 02:38:00,
2013-06-21 22:43:00,68.2,61.8,30.18,WNW,294,1.0,3.0,80,0.00,,---,0.00,VWS V14.01,2013-06-22 02:43:00,
2013-06-21 22:48:00,68.3,61.5,30.18,WNW,297,0.0,3.0,79,0.00,,---,0.00,VWS V14.01,2013-06-22 02:48:00,
2013-06-21 22:53:00,68.4,61.6,30.18,WNW,302,1.0,3.0,79,0.00,,---,0.00,VWS V14.01,2013-06-22 02:53:00,
2013-06-21 22:58:00,68.2,61.5,30.18,WNW,289,0.0,3.0,79,0.00,,---,0.00,VWS V14.01,2013-06-22 02:58:00,
2013-06-21 23:03:00,67.7,61.0,30.18,WNW,303,0.0,1.0,79,0.00,,---,0.00,VWS V14.01,2013-06-22 03:03:00,
2013-06-21 23:08:00,67.9,61.2,30.18,West,264,0.0,1.0,79,0.00,,---,0.00,VWS V14.01,2013-06-22 03:08:00,
2013-06-21 23:13:00,67.7,61.0,30.19,WNW,301,0.0,1.0,79,0.00,,---,0.00,VWS V14.01,2013-06-22 03:13:00,
2013-06-21 23:18:00,67.4,61.4,30.19,NW,315,0.0,1.0,81,0.00,,---,0.00,VWS V14.01,2013-06-22 03:18:00,
2013-06-21 23:23:00,67.3,60.9,30.19,NW,319,0.0,1.0,80,0.00,,---,0.00,VWS V14.01,2013-06-22 03:23:00,
2013-06-21 23:28:00,67.7,60.6,30.19,NW,320,0.0,1.0,78,0.00,,---,0.00,VWS V14.01,2013-06-22 03:28:00,
2013-06-21 23:33:00,67.2,60.5,30.18,WSW,249,1.0,3.0,79,0.00,,---,0.00,VWS V14.01,2013-06-22 03:33:00,
2013-06-21 23:38:00,67.2,60.1,30.18,West,269,1.0,3.0,78,0.00,,---,0.00,VWS V14.01,2013-06-22 03:38:00,
2013-06-21 23:43:00,68.1,59.9,30.18,WNW,303,0.0,3.0,75,0.00,,---,0.00,VWS V14.01,2013-06-22 03:43:00,
2013-06-21 23:48:00,67.9,59.7,30.18,WNW,302,0.0,3.0,75,0.00,,---,0.00,VWS V14.01,2013-06-22 03:48:00,
2013-06-21 23:53:00,67.7,59.5,30.18,WNW,297,1.0,3.0,75,0.00,,---,0.00,VWS V14.01,2013-06-22 03:53:00,
2013-06-21 23:58:00,67.7,59.5,30.18,NW,304,2.0,3.0,75,0.00,,---,0.00,VWS V14.01,2013-06-22 03:58:00,